Tracking 30918 objects as of 2-Jul-2025
HD Live streaming from Space Station
objects crossing your sky now

ARIANE 5 R/B

Track ARIANE 5 R/B now!


NORAD ID: 28787
Int'l Code: 2005-028B
Perigee: 559.0 km
Apogee: 35,659.4 km
Inclination: 7.5 °
Period: 635.3 minutes
Semi major axis: 24480 km
RCS: 17.904 m2 (large)
Launch date: August 11, 2005
Source: France (FR)
Launch site: FRENCH GUIANA (FRGUI)

Note: This is a ROCKET BODY
Your satellite tracking list
STARLINK-31282
Track 1 satellite(s)




NASA's NSSDC Master Catalog

Two Line Element Set (TLE):
1 28787U 05028B   25182.30549587 -.00000151  00000-0  36969-3 0  9990
2 28787   7.5415 355.0748 7169148 248.7862  25.4621  2.26663198164689
Source of the keplerian elements: AFSPC